owner,sensor,date,latitude,longitude,air_temperature,qcFlag 
LUMCON,ioos:station:LUMCON:101:1,2015-12-01T05:00:00Z,29.2533,-90.6633,21.4,1111122 
LUMCON,ioos:station:LUMCON:101:1,2015-12-01T05:15:00Z,29.2533,-90.6633,21.4,1111122 
LUMCON,ioos:station:LUMCON:101:1,2015-12-01T05:30:00Z,29.2533,-90.6633,21.4,1111122 
LUMCON,ioos:station:LUMCON:101:1,2015-12-01T05:45:00Z,29.2533,-90.6633,21.3,1111122 
LUMCON,ioos:station:LUMCON:101:1,2015-12-01T06:00:00Z,29.2533,-90.6633,21.4,1111122 
LUMCON,ioos:station:LUMCON:101:1,2015-12-01T06:15:00Z,29.2533,-90.6633,21.3,1111122 
LUMCON,ioos:station:LUMCON:101:1,2015-12-01T06:30:00Z,29.2533,-90.6633,21.2,1111122 
LUMCON,ioos:station:LUMCON:101:1,2015-12-01T06:45:00Z,29.2533,-90.6633,21.3,1111122 
LUMCON,ioos:station:LUMCON:101:1,2015-12-01T07:00:00Z,29.2533,-90.6633,21.2,1111122 
LUMCON,ioos:station:LUMCON:101:1,2015-12-01T07:15:00Z,29.2533,-90.6633,21.1,1111122 
LUMCON,ioos:station:LUMCON:101:1,2015-12-01T07:30:00Z,29.2533,-90.6633,21.3,1111122 
LUMCON,ioos:station:LUMCON:101:1,2015-12-01T07:45:00Z,29.2533,-90.6633,21.3,1111122 
LUMCON,ioos:station:LUMCON:101:1,2015-12-01T08:00:00Z,29.2533,-90.6633,21.2,1111122 
LUMCON,ioos:station:LUMCON:101:1,2015-12-01T08:15:00Z,29.2533,-90.6633,21.2,1111122 
LUMCON,ioos:station:LUMCON:101:1,2015-12-01T08:30:00Z,29.2533,-90.6633,21.1,1111122 
LUMCON,ioos:station:LUMCON:101:1,2015-12-01T08:45:00Z,29.2533,-90.6633,21.0,1111122 
LUMCON,ioos:station:LUMCON:101:1,2015-12-01T09:00:00Z,29.2533,-90.6633,21.0,1111122 
LUMCON,ioos:station:LUMCON:101:1,2015-12-01T09:15:00Z,29.2533,-90.6633,21.0,1111122 
LUMCON,ioos:station:LUMCON:101:1,2015-12-01T09:30:00Z,29.2533,-90.6633,21.0,1111122 
LUMCON,ioos:station:LUMCON:101:1,2015-12-01T09:45:00Z,29.2533,-90.6633,21.0,1111122 
LUMCON,ioos:station:LUMCON:101:1,2015-12-01T10:00:00Z,29.2533,-90.6633,21.0,1111122 
LUMCON,ioos:station:LUMCON:101:1,2015-12-01T10:15:00Z,29.2533,-90.6633,21.0,1111122 
LUMCON,ioos:station:LUMCON:101:1,2015-12-01T10:30:00Z,29.2533,-90.6633,21.0,1111122 
LUMCON,ioos:station:LUMCON:101:1,2015-12-01T10:45:00Z,29.2533,-90.6633,21.0,1111122 
LUMCON,ioos:station:LUMCON:101:1,2015-12-01T11:00:00Z,29.2533,-90.6633,21.0,1111122 
LUMCON,ioos:station:LUMCON:101:1,2015-12-01T11:15:00Z,29.2533,-90.6633,21.1,1111122 
LUMCON,ioos:station:LUMCON:101:1,2015-12-01T11:30:00Z,29.2533,-90.6633,21.2,1111122 
LUMCON,ioos:station:LUMCON:101:1,2015-12-01T11:45:00Z,29.2533,-90.6633,21.2,1111122 
LUMCON,ioos:station:LUMCON:101:1,2015-12-01T12:00:00Z,29.2533,-90.6633,21.2,1111122 
LUMCON,ioos:station:LUMCON:101:1,2015-12-01T12:15:00Z,29.2533,-90.6633,21.2,1111122 
LUMCON,ioos:station:LUMCON:101:1,2015-12-01T12:30:00Z,29.2533,-90.6633,21.4,1111122 
LUMCON,ioos:station:LUMCON:101:1,2015-12-01T12:45:00Z,29.2533,-90.6633,21.5,1111122 
LUMCON,ioos:station:LUMCON:101:1,2015-12-01T13:00:00Z,29.2533,-90.6633,21.5,1111122 
LUMCON,ioos:station:LUMCON:101:1,2015-12-01T13:15:00Z,29.2533,-90.6633,21.6,1111122 
LUMCON,ioos:station:LUMCON:101:1,2015-12-01T13:30:00Z,29.2533,-90.6633,21.9,1111122 
LUMCON,ioos:station:LUMCON:101:1,2015-12-01T13:45:00Z,29.2533,-90.6633,22.0,1111122 
LUMCON,ioos:station:LUMCON:101:1,2015-12-01T14:00:00Z,29.2533,-90.6633,22.5,1111122 
LUMCON,ioos:station:LUMCON:101:1,2015-12-01T14:15:00Z,29.2533,-90.6633,22.6,1111122 
LUMCON,ioos:station:LUMCON:101:1,2015-12-01T14:30:00Z,29.2533,-90.6633,22.5,1111122 
LUMCON,ioos:station:LUMCON:101:1,2015-12-01T14:45:00Z,29.2533,-90.6633,22.8,1111122 
LUMCON,ioos:station:LUMCON:101:1,2015-12-01T15:00:00Z,29.2533,-90.6633,22.6,1111122 
LUMCON,ioos:station:LUMCON:101:1,2015-12-01T15:15:00Z,29.2533,-90.6633,22.5,1111122 
LUMCON,ioos:station:LUMCON:101:1,2015-12-01T15:30:00Z,29.2533,-90.6633,22.7,1111122 
LUMCON,ioos:station:LUMCON:101:1,2015-12-01T15:45:00Z,29.2533,-90.6633,22.9,1111122 
LUMCON,ioos:station:LUMCON:101:1,2015-12-01T16:00:00Z,29.2533,-90.6633,22.5,1111122 
LUMCON,ioos:station:LUMCON:101:1,2015-12-01T16:15:00Z,29.2533,-90.6633,22.8,1111122 
LUMCON,ioos:station:LUMCON:101:1,2015-12-01T16:30:00Z,29.2533,-90.6633,23.2,1111122 
LUMCON,ioos:station:LUMCON:101:1,2015-12-01T16:45:00Z,29.2533,-90.6633,23.8,1111122 
LUMCON,ioos:station:LUMCON:101:1,2015-12-01T17:00:00Z,29.2533,-90.6633,23.9,1111122 
LUMCON,ioos:station:LUMCON:101:1,2015-12-01T17:15:00Z,29.2533,-90.6633,24.0,1111122 
LUMCON,ioos:station:LUMCON:101:1,2015-12-01T17:30:00Z,29.2533,-90.6633,24.2,1111122 
LUMCON,ioos:station:LUMCON:101:1,2015-12-01T17:45:00Z,29.2533,-90.6633,24.8,1111122 
LUMCON,ioos:station:LUMCON:101:1,2015-12-01T18:00:00Z,29.2533,-90.6633,24.7,1111122 
LUMCON,ioos:station:LUMCON:101:1,2015-12-01T18:15:00Z,29.2533,-90.6633,24.8,1111122 
LUMCON,ioos:station:LUMCON:101:1,2015-12-01T18:30:00Z,29.2533,-90.6633,24.8,1111122 
LUMCON,ioos:station:LUMCON:101:1,2015-12-01T18:45:00Z,29.2533,-90.6633,24.9,1111122 
LUMCON,ioos:station:LUMCON:101:1,2015-12-01T19:00:00Z,29.2533,-90.6633,24.8,1111122 
LUMCON,ioos:station:LUMCON:101:1,2015-12-01T19:15:00Z,29.2533,-90.6633,24.7,1111122 
LUMCON,ioos:station:LUMCON:101:1,2015-12-01T19:30:00Z,29.2533,-90.6633,24.6,1111122 
LUMCON,ioos:station:LUMCON:101:1,2015-12-01T19:45:00Z,29.2533,-90.6633,24.5,1111122 
LUMCON,ioos:station:LUMCON:101:1,2015-12-01T20:00:00Z,29.2533,-90.6633,24.3,1111122 
LUMCON,ioos:station:LUMCON:101:1,2015-12-01T20:15:00Z,29.2533,-90.6633,24.2,1111122 
LUMCON,ioos:station:LUMCON:101:1,2015-12-01T20:30:00Z,29.2533,-90.6633,24.2,1111122 
LUMCON,ioos:station:LUMCON:101:1,2015-12-01T20:45:00Z,29.2533,-90.6633,24.2,1111122 
LUMCON,ioos:station:LUMCON:101:1,2015-12-01T21:00:00Z,29.2533,-90.6633,24.1,1111122 
LUMCON,ioos:station:LUMCON:101:1,2015-12-01T21:15:00Z,29.2533,-90.6633,23.9,1111122 
LUMCON,ioos:station:LUMCON:101:1,2015-12-01T21:30:00Z,29.2533,-90.6633,23.7,1111122 
LUMCON,ioos:station:LUMCON:101:1,2015-12-01T21:45:00Z,29.2533,-90.6633,23.5,1111122 
LUMCON,ioos:station:LUMCON:101:1,2015-12-01T22:00:00Z,29.2533,-90.6633,23.2,1111122 
LUMCON,ioos:station:LUMCON:101:1,2015-12-01T22:15:00Z,29.2533,-90.6633,23.0,1111122 
LUMCON,ioos:station:LUMCON:101:1,2015-12-01T22:30:00Z,29.2533,-90.6633,22.9,1111122 
LUMCON,ioos:station:LUMCON:101:1,2015-12-01T22:45:00Z,29.2533,-90.6633,22.8,1111122 
LUMCON,ioos:station:LUMCON:101:1,2015-12-01T23:00:00Z,29.2533,-90.6633,22.7,1111122 
LUMCON,ioos:station:LUMCON:101:1,2015-12-01T23:15:00Z,29.2533,-90.6633,22.7,1111122 
LUMCON,ioos:station:LUMCON:101:1,2015-12-01T23:30:00Z,29.2533,-90.6633,22.5,1111122 
LUMCON,ioos:station:LUMCON:101:1,2015-12-01T23:45:00Z,29.2533,-90.6633,22.3,1111122 
LUMCON,ioos:station:LUMCON:101:1,2015-12-02T05:00:00Z,29.2533,-90.6633,20.5,1111122 
LUMCON,ioos:station:LUMCON:101:1,2015-12-02T05:15:00Z,29.2533,-90.6633,20.5,1111122 
LUMCON,ioos:station:LUMCON:101:1,2015-12-02T05:30:00Z,29.2533,-90.6633,20.6,1111122 
LUMCON,ioos:station:LUMCON:101:1,2015-12-02T05:45:00Z,29.2533,-90.6633,20.5,1111122 
LUMCON,ioos:station:LUMCON:101:1,2015-12-02T06:00:00Z,29.2533,-90.6633,20.6,1111122 
LUMCON,ioos:station:LUMCON:101:1,2015-12-02T06:15:00Z,29.2533,-90.6633,20.6,1111122 
LUMCON,ioos:station:LUMCON:101:1,2015-12-02T06:30:00Z,29.2533,-90.6633,20.5,1111122 
LUMCON,ioos:station:LUMCON:101:1,2015-12-02T06:45:00Z,29.2533,-90.6633,20.4,1111122 
LUMCON,ioos:station:LUMCON:101:1,2015-12-02T07:00:00Z,29.2533,-90.6633,20.4,1111122 
LUMCON,ioos:station:LUMCON:101:1,2015-12-02T07:15:00Z,29.2533,-90.6633,20.2,1111122 
LUMCON,ioos:station:LUMCON:101:1,2015-12-02T07:30:00Z,29.2533,-90.6633,20.2,1111122 
LUMCON,ioos:station:LUMCON:101:1,2015-12-02T07:45:00Z,29.2533,-90.6633,20.0,1111122 
LUMCON,ioos:station:LUMCON:101:1,2015-12-02T08:00:00Z,29.2533,-90.6633,19.4,1111122 
LUMCON,ioos:station:LUMCON:101:1,2015-12-02T08:15:00Z,29.2533,-90.6633,18.9,1111122 
LUMCON,ioos:station:LUMCON:101:1,2015-12-02T08:30:00Z,29.2533,-90.6633,18.7,1111122 
LUMCON,ioos:station:LUMCON:101:1,2015-12-02T08:45:00Z,29.2533,-90.6633,18.5,1111122 
LUMCON,ioos:station:LUMCON:101:1,2015-12-02T09:00:00Z,29.2533,-90.6633,17.8,1111122 
LUMCON,ioos:station:LUMCON:101:1,2015-12-02T09:15:00Z,29.2533,-90.6633,17.8,1111122 
LUMCON,ioos:station:LUMCON:101:1,2015-12-02T09:30:00Z,29.2533,-90.6633,18.0,1111122 
LUMCON,ioos:station:LUMCON:101:1,2015-12-02T09:45:00Z,29.2533,-90.6633,17.9,1111122 
LUMCON,ioos:station:LUMCON:101:1,2015-12-02T10:00:00Z,29.2533,-90.6633,17.9,1111122 
LUMCON,ioos:station:LUMCON:101:1,2015-12-02T10:15:00Z,29.2533,-90.6633,17.5,1111122 
LUMCON,ioos:station:LUMCON:101:1,2015-12-02T10:30:00Z,29.2533,-90.6633,17.3,1111122 
LUMCON,ioos:station:LUMCON:101:1,2015-12-02T10:45:00Z,29.2533,-90.6633,17.2,1111122 
LUMCON,ioos:station:LUMCON:101:1,2015-12-02T11:00:00Z,29.2533,-90.6633,17.1,1111122 
LUMCON,ioos:station:LUMCON:101:1,2015-12-02T11:15:00Z,29.2533,-90.6633,17.1,1111122 
LUMCON,ioos:station:LUMCON:101:1,2015-12-02T11:30:00Z,29.2533,-90.6633,17.1,1111122 
LUMCON,ioos:station:LUMCON:101:1,2015-12-02T11:45:00Z,29.2533,-90.6633,16.8,1111122 
LUMCON,ioos:station:LUMCON:101:1,2015-12-02T12:00:00Z,29.2533,-90.6633,16.7,1111122 
LUMCON,ioos:station:LUMCON:101:1,2015-12-02T12:15:00Z,29.2533,-90.6633,16.6,1111122 
LUMCON,ioos:station:LUMCON:101:1,2015-12-02T12:30:00Z,29.2533,-90.6633,16.7,1111122 
LUMCON,ioos:station:LUMCON:101:1,2015-12-02T12:45:00Z,29.2533,-90.6633,16.7,1111122 
LUMCON,ioos:station:LUMCON:101:1,2015-12-02T13:00:00Z,29.2533,-90.6633,16.5,1111122 
LUMCON,ioos:station:LUMCON:101:1,2015-12-02T13:15:00Z,29.2533,-90.6633,16.5,1111122 
LUMCON,ioos:station:LUMCON:101:1,2015-12-02T13:30:00Z,29.2533,-90.6633,16.5,1111122 
LUMCON,ioos:station:LUMCON:101:1,2015-12-02T13:45:00Z,29.2533,-90.6633,16.7,1111122 
LUMCON,ioos:station:LUMCON:101:1,2015-12-02T14:00:00Z,29.2533,-90.6633,16.5,1111122 
LUMCON,ioos:station:LUMCON:101:1,2015-12-02T14:15:00Z,29.2533,-90.6633,16.7,1111122 
LUMCON,ioos:station:LUMCON:101:1,2015-12-02T14:30:00Z,29.2533,-90.6633,16.3,1111122 
LUMCON,ioos:station:LUMCON:101:1,2015-12-02T14:45:00Z,29.2533,-90.6633,16.3,1111122 
LUMCON,ioos:station:LUMCON:101:1,2015-12-02T15:00:00Z,29.2533,-90.6633,16.0,1111122 
LUMCON,ioos:station:LUMCON:101:1,2015-12-02T15:15:00Z,29.2533,-90.6633,15.5,1111122 
LUMCON,ioos:station:LUMCON:101:1,2015-12-02T15:30:00Z,29.2533,-90.6633,15.2,1111122 
LUMCON,ioos:station:LUMCON:101:1,2015-12-02T15:45:00Z,29.2533,-90.6633,15.0,1111122 
LUMCON,ioos:station:LUMCON:101:1,2015-12-02T16:00:00Z,29.2533,-90.6633,15.1,1111122 
LUMCON,ioos:station:LUMCON:101:1,2015-12-02T16:15:00Z,29.2533,-90.6633,15.4,1111122 
LUMCON,ioos:station:LUMCON:101:1,2015-12-02T16:30:00Z,29.2533,-90.6633,15.2,1111122 
LUMCON,ioos:station:LUMCON:101:1,2015-12-02T16:45:00Z,29.2533,-90.6633,15.3,1111122 
LUMCON,ioos:station:LUMCON:101:1,2015-12-02T17:00:00Z,29.2533,-90.6633,15.4,1111122 
LUMCON,ioos:station:LUMCON:101:1,2015-12-02T17:15:00Z,29.2533,-90.6633,15.3,1111122 
LUMCON,ioos:station:LUMCON:101:1,2015-12-02T17:30:00Z,29.2533,-90.6633,15.4,1111122 
LUMCON,ioos:station:LUMCON:101:1,2015-12-02T17:45:00Z,29.2533,-90.6633,15.7,1111122 
LUMCON,ioos:station:LUMCON:101:1,2015-12-02T18:00:00Z,29.2533,-90.6633,15.5,1111122 
LUMCON,ioos:station:LUMCON:101:1,2015-12-02T18:15:00Z,29.2533,-90.6633,15.4,1111122 
LUMCON,ioos:station:LUMCON:101:1,2015-12-02T18:30:00Z,29.2533,-90.6633,15.2,1111122 
LUMCON,ioos:station:LUMCON:101:1,2015-12-02T18:45:00Z,29.2533,-90.6633,15.1,1111122 
LUMCON,ioos:station:LUMCON:101:1,2015-12-02T19:00:00Z,29.2533,-90.6633,15.1,1111122 
LUMCON,ioos:station:LUMCON:101:1,2015-12-02T19:15:00Z,29.2533,-90.6633,15.0,1111122 
LUMCON,ioos:station:LUMCON:101:1,2015-12-02T19:30:00Z,29.2533,-90.6633,15.0,1111122 
LUMCON,ioos:station:LUMCON:101:1,2015-12-02T19:45:00Z,29.2533,-90.6633,15.0,1111122 
LUMCON,ioos:station:LUMCON:101:1,2015-12-02T20:00:00Z,29.2533,-90.6633,14.8,1111122 
LUMCON,ioos:station:LUMCON:101:1,2015-12-02T20:15:00Z,29.2533,-90.6633,14.8,1111122 
LUMCON,ioos:station:LUMCON:101:1,2015-12-02T20:30:00Z,29.2533,-90.6633,15.1,1111122 
LUMCON,ioos:station:LUMCON:101:1,2015-12-02T20:45:00Z,29.2533,-90.6633,15.1,1111122 
LUMCON,ioos:station:LUMCON:101:1,2015-12-02T21:00:00Z,29.2533,-90.6633,15.1,1111122 
LUMCON,ioos:station:LUMCON:101:1,2015-12-02T21:15:00Z,29.2533,-90.6633,15.1,1111122 
LUMCON,ioos:station:LUMCON:101:1,2015-12-02T21:30:00Z,29.2533,-90.6633,15.1,1111122 
LUMCON,ioos:station:LUMCON:101:1,2015-12-02T21:45:00Z,29.2533,-90.6633,15.2,1111122 
LUMCON,ioos:station:LUMCON:101:1,2015-12-02T22:00:00Z,29.2533,-90.6633,15.1,1111122 
LUMCON,ioos:station:LUMCON:101:1,2015-12-02T22:15:00Z,29.2533,-90.6633,15.1,1111122 
LUMCON,ioos:station:LUMCON:101:1,2015-12-02T22:30:00Z,29.2533,-90.6633,15.1,1111122 
LUMCON,ioos:station:LUMCON:101:1,2015-12-02T22:45:00Z,29.2533,-90.6633,15.0,1111122 
LUMCON,ioos:station:LUMCON:101:1,2015-12-02T23:00:00Z,29.2533,-90.6633,15.2,1111122 
LUMCON,ioos:station:LUMCON:101:1,2015-12-02T23:15:00Z,29.2533,-90.6633,15.0,1111122 
LUMCON,ioos:station:LUMCON:101:1,2015-12-02T23:30:00Z,29.2533,-90.6633,15.1,1111122 
LUMCON,ioos:station:LUMCON:101:1,2015-12-02T23:45:00Z,29.2533,-90.6633,15.0,1111122 
LUMCON,ioos:station:LUMCON:101:1,2015-12-03T05:00:00Z,29.2533,-90.6633,13.1,1111122 
LUMCON,ioos:station:LUMCON:101:1,2015-12-03T05:15:00Z,29.2533,-90.6633,13.1,1111122 
LUMCON,ioos:station:LUMCON:101:1,2015-12-03T05:30:00Z,29.2533,-90.6633,13.1,1111122 
LUMCON,ioos:station:LUMCON:101:1,2015-12-03T05:45:00Z,29.2533,-90.6633,13.0,1111122 
LUMCON,ioos:station:LUMCON:101:1,2015-12-03T06:00:00Z,29.2533,-90.6633,12.9,1111122 
LUMCON,ioos:station:LUMCON:101:1,2015-12-03T06:15:00Z,29.2533,-90.6633,13.0,1111122 
LUMCON,ioos:station:LUMCON:101:1,2015-12-03T06:30:00Z,29.2533,-90.6633,13.0,1111122 
LUMCON,ioos:station:LUMCON:101:1,2015-12-03T06:45:00Z,29.2533,-90.6633,13.1,1111122 
LUMCON,ioos:station:LUMCON:101:1,2015-12-03T07:00:00Z,29.2533,-90.6633,13.1,1111122 
LUMCON,ioos:station:LUMCON:101:1,2015-12-03T07:15:00Z,29.2533,-90.6633,12.8,1111122 
LUMCON,ioos:station:LUMCON:101:1,2015-12-03T07:30:00Z,29.2533,-90.6633,12.8,1111122 
LUMCON,ioos:station:LUMCON:101:1,2015-12-03T07:45:00Z,29.2533,-90.6633,12.6,1111122 
LUMCON,ioos:station:LUMCON:101:1,2015-12-03T08:00:00Z,29.2533,-90.6633,12.5,1111122 
LUMCON,ioos:station:LUMCON:101:1,2015-12-03T08:15:00Z,29.2533,-90.6633,12.5,1111122 
LUMCON,ioos:station:LUMCON:101:1,2015-12-03T08:30:00Z,29.2533,-90.6633,12.5,1111122 
LUMCON,ioos:station:LUMCON:101:1,2015-12-03T08:45:00Z,29.2533,-90.6633,12.4,1111122 
LUMCON,ioos:station:LUMCON:101:1,2015-12-03T09:00:00Z,29.2533,-90.6633,12.2,1111122 
LUMCON,ioos:station:LUMCON:101:1,2015-12-03T09:15:00Z,29.2533,-90.6633,12.2,1111122 
LUMCON,ioos:station:LUMCON:101:1,2015-12-03T09:30:00Z,29.2533,-90.6633,12.1,1111122 
LUMCON,ioos:station:LUMCON:101:1,2015-12-03T09:45:00Z,29.2533,-90.6633,12.0,1111122 
LUMCON,ioos:station:LUMCON:101:1,2015-12-03T10:00:00Z,29.2533,-90.6633,11.9,1111122 
LUMCON,ioos:station:LUMCON:101:1,2015-12-03T10:15:00Z,29.2533,-90.6633,11.9,1111122 
LUMCON,ioos:station:LUMCON:101:1,2015-12-03T10:30:00Z,29.2533,-90.6633,11.8,1111122 
LUMCON,ioos:station:LUMCON:101:1,2015-12-03T10:45:00Z,29.2533,-90.6633,11.6,1111122 
LUMCON,ioos:station:LUMCON:101:1,2015-12-03T11:00:00Z,29.2533,-90.6633,11.7,1111122 
LUMCON,ioos:station:LUMCON:101:1,2015-12-03T11:15:00Z,29.2533,-90.6633,11.6,1111122 
LUMCON,ioos:station:LUMCON:101:1,2015-12-03T11:30:00Z,29.2533,-90.6633,11.5,1111122 
LUMCON,ioos:station:LUMCON:101:1,2015-12-03T11:45:00Z,29.2533,-90.6633,11.5,1111122 
LUMCON,ioos:station:LUMCON:101:1,2015-12-03T12:00:00Z,29.2533,-90.6633,11.4,1111122 
LUMCON,ioos:station:LUMCON:101:1,2015-12-03T12:15:00Z,29.2533,-90.6633,11.4,1111122 
LUMCON,ioos:station:LUMCON:101:1,2015-12-03T12:30:00Z,29.2533,-90.6633,11.4,1111122 
LUMCON,ioos:station:LUMCON:101:1,2015-12-03T12:45:00Z,29.2533,-90.6633,11.3,1111122 
LUMCON,ioos:station:LUMCON:101:1,2015-12-03T13:00:00Z,29.2533,-90.6633,11.3,1111122 
LUMCON,ioos:station:LUMCON:101:1,2015-12-03T13:15:00Z,29.2533,-90.6633,11.2,1111122 
LUMCON,ioos:station:LUMCON:101:1,2015-12-03T13:30:00Z,29.2533,-90.6633,11.1,1111122 
LUMCON,ioos:station:LUMCON:101:1,2015-12-03T13:45:00Z,29.2533,-90.6633,11.1,1111122 
LUMCON,ioos:station:LUMCON:101:1,2015-12-03T14:00:00Z,29.2533,-90.6633,11.1,1111122 
LUMCON,ioos:station:LUMCON:101:1,2015-12-03T14:15:00Z,29.2533,-90.6633,11.1,1111122 
LUMCON,ioos:station:LUMCON:101:1,2015-12-03T14:30:00Z,29.2533,-90.6633,10.9,1111122 
LUMCON,ioos:station:LUMCON:101:1,2015-12-03T14:45:00Z,29.2533,-90.6633,10.9,1111122 
LUMCON,ioos:station:LUMCON:101:1,2015-12-03T15:00:00Z,29.2533,-90.6633,11.0,1111122 
LUMCON,ioos:station:LUMCON:101:1,2015-12-03T15:15:00Z,29.2533,-90.6633,11.0,1111122 
LUMCON,ioos:station:LUMCON:101:1,2015-12-03T15:30:00Z,29.2533,-90.6633,10.9,1111122 
LUMCON,ioos:station:LUMCON:101:1,2015-12-03T15:45:00Z,29.2533,-90.6633,11.0,1111122 
LUMCON,ioos:station:LUMCON:101:1,2015-12-03T16:00:00Z,29.2533,-90.6633,11.1,1111122 
LUMCON,ioos:station:LUMCON:101:1,2015-12-03T16:15:00Z,29.2533,-90.6633,11.1,1111122 
LUMCON,ioos:station:LUMCON:101:1,2015-12-03T16:30:00Z,29.2533,-90.6633,11.3,1111122 
LUMCON,ioos:station:LUMCON:101:1,2015-12-03T16:45:00Z,29.2533,-90.6633,11.0,1111122 
LUMCON,ioos:station:LUMCON:101:1,2015-12-03T17:00:00Z,29.2533,-90.6633,10.9,1111122 
LUMCON,ioos:station:LUMCON:101:1,2015-12-03T17:15:00Z,29.2533,-90.6633,10.9,1111122 
LUMCON,ioos:station:LUMCON:101:1,2015-12-03T17:30:00Z,29.2533,-90.6633,10.9,1111122 
LUMCON,ioos:station:LUMCON:101:1,2015-12-03T17:45:00Z,29.2533,-90.6633,11.0,1111122 
LUMCON,ioos:station:LUMCON:101:1,2015-12-03T18:00:00Z,29.2533,-90.6633,11.0,1111122 
LUMCON,ioos:station:LUMCON:101:1,2015-12-03T18:15:00Z,29.2533,-90.6633,11.2,1111122 
LUMCON,ioos:station:LUMCON:101:1,2015-12-03T18:30:00Z,29.2533,-90.6633,11.1,1111122 
LUMCON,ioos:station:LUMCON:101:1,2015-12-03T18:45:00Z,29.2533,-90.6633,11.2,1111122 
LUMCON,ioos:station:LUMCON:101:1,2015-12-03T19:00:00Z,29.2533,-90.6633,11.2,1111122 
LUMCON,ioos:station:LUMCON:101:1,2015-12-03T19:15:00Z,29.2533,-90.6633,11.4,1111122 
LUMCON,ioos:station:LUMCON:101:1,2015-12-03T19:30:00Z,29.2533,-90.6633,11.3,1111122 
LUMCON,ioos:station:LUMCON:101:1,2015-12-03T19:45:00Z,29.2533,-90.6633,11.3,1111122 
LUMCON,ioos:station:LUMCON:101:1,2015-12-03T20:00:00Z,29.2533,-90.6633,11.5,1111122 
LUMCON,ioos:station:LUMCON:101:1,2015-12-03T20:15:00Z,29.2533,-90.6633,11.6,1111122 
LUMCON,ioos:station:LUMCON:101:1,2015-12-03T20:30:00Z,29.2533,-90.6633,11.5,1111122 
LUMCON,ioos:station:LUMCON:101:1,2015-12-03T20:45:00Z,29.2533,-90.6633,11.6,1111122 
LUMCON,ioos:station:LUMCON:101:1,2015-12-03T21:00:00Z,29.2533,-90.6633,11.8,1111122 
LUMCON,ioos:station:LUMCON:101:1,2015-12-03T21:15:00Z,29.2533,-90.6633,11.7,1111122 
LUMCON,ioos:station:LUMCON:101:1,2015-12-03T21:30:00Z,29.2533,-90.6633,11.6,1111122 
LUMCON,ioos:station:LUMCON:101:1,2015-12-03T21:45:00Z,29.2533,-90.6633,11.3,1111122 
LUMCON,ioos:station:LUMCON:101:1,2015-12-03T22:00:00Z,29.2533,-90.6633,11.2,1111122 
LUMCON,ioos:station:LUMCON:101:1,2015-12-03T22:15:00Z,29.2533,-90.6633,11.1,1111122 
LUMCON,ioos:station:LUMCON:101:1,2015-12-03T22:30:00Z,29.2533,-90.6633,11.0,1111122 
LUMCON,ioos:station:LUMCON:101:1,2015-12-03T22:45:00Z,29.2533,-90.6633,10.9,1111122 
LUMCON,ioos:station:LUMCON:101:1,2015-12-03T23:00:00Z,29.2533,-90.6633,10.7,1111122 
LUMCON,ioos:station:LUMCON:101:1,2015-12-03T23:15:00Z,29.2533,-90.6633,10.6,1111122 
LUMCON,ioos:station:LUMCON:101:1,2015-12-03T23:30:00Z,29.2533,-90.6633,10.4,1111122 
LUMCON,ioos:station:LUMCON:101:1,2015-12-03T23:45:00Z,29.2533,-90.6633,10.6,1111122 
LUMCON,ioos:station:LUMCON:101:1,2015-12-04T05:00:00Z,29.2533,-90.6633,9.4,1111122 
LUMCON,ioos:station:LUMCON:101:1,2015-12-04T05:15:00Z,29.2533,-90.6633,9.4,1111122 
LUMCON,ioos:station:LUMCON:101:1,2015-12-04T05:30:00Z,29.2533,-90.6633,9.4,1111122 
LUMCON,ioos:station:LUMCON:101:1,2015-12-04T05:45:00Z,29.2533,-90.6633,9.3,1111122 
LUMCON,ioos:station:LUMCON:101:1,2015-12-04T06:00:00Z,29.2533,-90.6633,9.0,1111122 
LUMCON,ioos:station:LUMCON:101:1,2015-12-04T06:15:00Z,29.2533,-90.6633,9.0,1111122 
LUMCON,ioos:station:LUMCON:101:1,2015-12-04T06:30:00Z,29.2533,-90.6633,9.2,1111122 
LUMCON,ioos:station:LUMCON:101:1,2015-12-04T06:45:00Z,29.2533,-90.6633,9.2,1111122 
LUMCON,ioos:station:LUMCON:101:1,2015-12-04T07:00:00Z,29.2533,-90.6633,9.0,1111122 
LUMCON,ioos:station:LUMCON:101:1,2015-12-04T07:15:00Z,29.2533,-90.6633,8.9,1111122 
LUMCON,ioos:station:LUMCON:101:1,2015-12-04T07:30:00Z,29.2533,-90.6633,9.0,1111122 
LUMCON,ioos:station:LUMCON:101:1,2015-12-04T07:45:00Z,29.2533,-90.6633,8.8,1111122 
LUMCON,ioos:station:LUMCON:101:1,2015-12-04T08:00:00Z,29.2533,-90.6633,8.6,1111122 
LUMCON,ioos:station:LUMCON:101:1,2015-12-04T08:15:00Z,29.2533,-90.6633,8.3,1111122 
LUMCON,ioos:station:LUMCON:101:1,2015-12-04T08:30:00Z,29.2533,-90.6633,8.0,1111122 
LUMCON,ioos:station:LUMCON:101:1,2015-12-04T08:45:00Z,29.2533,-90.6633,7.8,1111122 
LUMCON,ioos:station:LUMCON:101:1,2015-12-04T09:00:00Z,29.2533,-90.6633,7.9,1111122 
LUMCON,ioos:station:LUMCON:101:1,2015-12-04T09:15:00Z,29.2533,-90.6633,7.9,1111122 
LUMCON,ioos:station:LUMCON:101:1,2015-12-04T09:30:00Z,29.2533,-90.6633,7.9,1111122 
LUMCON,ioos:station:LUMCON:101:1,2015-12-04T09:45:00Z,29.2533,-90.6633,8.0,1111122 
LUMCON,ioos:station:LUMCON:101:1,2015-12-04T10:00:00Z,29.2533,-90.6633,7.6,1111122 
LUMCON,ioos:station:LUMCON:101:1,2015-12-04T10:15:00Z,29.2533,-90.6633,7.8,1111122 
LUMCON,ioos:station:LUMCON:101:1,2015-12-04T10:30:00Z,29.2533,-90.6633,7.5,1111122 
LUMCON,ioos:station:LUMCON:101:1,2015-12-04T10:45:00Z,29.2533,-90.6633,7.4,1111122 
LUMCON,ioos:station:LUMCON:101:1,2015-12-04T11:00:00Z,29.2533,-90.6633,7.2,1111122 
LUMCON,ioos:station:LUMCON:101:1,2015-12-04T11:15:00Z,29.2533,-90.6633,7.2,1111122 
LUMCON,ioos:station:LUMCON:101:1,2015-12-04T11:30:00Z,29.2533,-90.6633,7.3,1111122 
LUMCON,ioos:station:LUMCON:101:1,2015-12-04T11:45:00Z,29.2533,-90.6633,7.3,1111122 
LUMCON,ioos:station:LUMCON:101:1,2015-12-04T12:00:00Z,29.2533,-90.6633,7.0,1111122 
LUMCON,ioos:station:LUMCON:101:1,2015-12-04T12:15:00Z,29.2533,-90.6633,7.2,1111122 
LUMCON,ioos:station:LUMCON:101:1,2015-12-04T12:30:00Z,29.2533,-90.6633,7.5,1111122 
LUMCON,ioos:station:LUMCON:101:1,2015-12-04T12:45:00Z,29.2533,-90.6633,7.9,1111122 
LUMCON,ioos:station:LUMCON:101:1,2015-12-04T13:00:00Z,29.2533,-90.6633,8.3,1111122 
LUMCON,ioos:station:LUMCON:101:1,2015-12-04T13:15:00Z,29.2533,-90.6633,8.5,1111122 
LUMCON,ioos:station:LUMCON:101:1,2015-12-04T13:30:00Z,29.2533,-90.6633,8.8,1111122 
LUMCON,ioos:station:LUMCON:101:1,2015-12-04T13:45:00Z,29.2533,-90.6633,8.9,1111122 
LUMCON,ioos:station:LUMCON:101:1,2015-12-04T14:00:00Z,29.2533,-90.6633,9.4,1111122 
LUMCON,ioos:station:LUMCON:101:1,2015-12-04T14:15:00Z,29.2533,-90.6633,9.7,1111122 
LUMCON,ioos:station:LUMCON:101:1,2015-12-04T14:30:00Z,29.2533,-90.6633,10.0,1111122 
LUMCON,ioos:station:LUMCON:101:1,2015-12-04T14:45:00Z,29.2533,-90.6633,10.2,1111122 
LUMCON,ioos:station:LUMCON:101:1,2015-12-04T15:00:00Z,29.2533,-90.6633,10.3,1111122 
LUMCON,ioos:station:LUMCON:101:1,2015-12-04T15:15:00Z,29.2533,-90.6633,10.6,1111122 
LUMCON,ioos:station:LUMCON:101:1,2015-12-04T15:30:00Z,29.2533,-90.6633,11.1,1111122 
LUMCON,ioos:station:LUMCON:101:1,2015-12-04T15:45:00Z,29.2533,-90.6633,11.4,1111122 
LUMCON,ioos:station:LUMCON:101:1,2015-12-04T16:00:00Z,29.2533,-90.6633,11.7,1111122 
LUMCON,ioos:station:LUMCON:101:1,2015-12-04T16:15:00Z,29.2533,-90.6633,11.9,1111122 
LUMCON,ioos:station:LUMCON:101:1,2015-12-04T16:30:00Z,29.2533,-90.6633,12.2,1111122 
LUMCON,ioos:station:LUMCON:101:1,2015-12-04T16:45:00Z,29.2533,-90.6633,12.4,1111122 
LUMCON,ioos:station:LUMCON:101:1,2015-12-04T17:00:00Z,29.2533,-90.6633,12.7,1111122 
LUMCON,ioos:station:LUMCON:101:1,2015-12-04T17:15:00Z,29.2533,-90.6633,13.0,1111122 
LUMCON,ioos:station:LUMCON:101:1,2015-12-04T17:30:00Z,29.2533,-90.6633,13.1,1111122 
LUMCON,ioos:station:LUMCON:101:1,2015-12-04T17:45:00Z,29.2533,-90.6633,13.5,1111122 
LUMCON,ioos:station:LUMCON:101:1,2015-12-04T18:00:00Z,29.2533,-90.6633,13.9,1111122 
LUMCON,ioos:station:LUMCON:101:1,2015-12-04T18:15:00Z,29.2533,-90.6633,14.0,1111122 